Location: Ariel
(45.9570°N, 122.5700°W)
Time: 20:59:07
(UTC-07:00)

A-11 Canister half - Pass Details

Date: 03 September 2019
Orbit: 1514 x 1686 km, 47.2° (Epoch: 14 September)

Event Time Altitude Azimuth Distance (km) Brightness Sun altitude
Rises 22:35:45 0° 292° (WNW) 4,739 12.6 -26.7°
Reaches altitude 10° 22:39:06 10° 284° (WNW) 3,777 11.7 -27.1°
Maximum altitude 22:47:28 35° 224° (SW) 2,375 9.9 -28.1°
Enters shadow 22:50:16 30° 194° (SSW) 2,589 9.8 -28.4°
